Location: Bay Harbour
(38.2612°N, 75.2555°W)
Time: 01:54:26
(UTC+00:00)

In-Cosmos 22 Rocket - Pass Details

Date: 29 October 2020
Orbit: 791 x 888 km, 81.2° (Epoch: 02 December)

Event Time Altitude Azimuth Distance (km) Brightness Sun altitude
Rises 22:40:03 0° 357° (N) 3,316 7.2 -7.6°
Reaches altitude 10° 22:42:31 10° 3° (N) 2,392 6.4 -8.1°
Maximum altitude 22:47:44 48° 77° (ENE) 1,057 4.3 -9.1°
Drops below altitude 10° 22:53:02 10° 152° (SSE) 2,433 6.4 -10.1°
Sets 22:55:32 0° 158° (SSE) 3,379 7.2 -10.6°
